Probability
0 0 1 2 3 4 3 2 1 0 0 1 2 3 3 1 0 0 0 0 0 0 0 0 0 0 0 0 0 0 0 0 0 0 0 0 0 0 0 0 0 0 0
0 0 1 2 3 4 4 3 2 1 0 1 2 2 2 1 0 0 0 0 0 0 0 0 0 0 0 0 0 0 0 0 0 0 0 0 0 0 0 0 0 0 0
0 0 1 2 3 4 5 4 3 1 0 0 1 1 1 1 0 0 0 0 0 0 0 0 0 0 0 0 0 0 0 0 0 0 0 0 0 0 0 0 0 0 0
0 0 1 3 4 5 6 4 3 2 1 0 0 0 0 0 0 0 0 0 0 0 0 0 0 0 0 0 0 0 0 0 0 0 0 0 0 0 0 0 0 0 0
0 0 1 3 5 6 6 5 4 3 1 0 0 0 0 0 0 0 0 0 0 0 0 0 0 0 0 0 0 0 0 0 0 0 0 0 0 0 0 0 0 0 0
1 1 2 5 6 6 6 6 5 4 2 1 0 0 0 0 0 0 0 0 0 0 0 0 0 0 0 0 0 0 0 0 0 0 0 0 0 0 0 0 0 0 0
2 2 4 6 6 6 6 6 6 5 4 2 1 0 0 0 0 0 0 0 0 0 0 0 0 0 0 0 0 0 0 0 0 0 0 0 0 0 0 0 0 0 0
3 3 5 6 6 6 6 6 6 6 5 3 1 0 0 0 0 0 0 0 0 0 0 0 0 0 0 0 0 0 0 0 0 0 0 0 0 0 0 0 0 0 0
3 3 4 6 6 5 5 6 6 5 4 3 1 0 0 0 0 0 0 0 0 0 0 0 0 0 0 0 0 0 0 0 0 0 0 0 0 0 0 0 0 0 0
2 2 3 5 5 3 3 3 3 3 2 1 1 0 0 0 0 0 0 0 0 0 0 0 0 0 0 0 0 0 0 0 0 0 0 0 0 0 0 0 0 0 0
1 1 1 3 3 2 2 2 1 1 1 0 0 0 0 0 0 0 0 0 0 0 0 0 0 0 0 0 0 0 0 0 0 0 0 0 0 0 0 0 0 0 0
1 0 0 1 2 2 2 2 2 2 1 0 0 0 0 0 0 0 0 0 0 0 0 0 0 0 0 0 0 0 0 0 0 0 0 0 0 0 0 0 0 0 0
0 0 0 0 1 1 1 2 2 2 1 0 0 0 0 0 0 0 0 0 0 0 0 0 0 0 0 0 0 0 0 0 0 0 0 0 0 0 0 0 0 0 0
0 0 0 0 0 0 0 1 1 1 0 0 0 0 0 0 0 0 0 0 0 0 0 0 0 0 0 0 0 0 0 0 0 0 0 0 0 0 0 0 0 0 0
0 0 0 0 0 0 0 0 0 0 0 0 0 0 0 0 0 0 0 0 0 0 0 0 0 0 0 0 0 0 0 0 0 0 0 0 0 0 0 0 0 0 0
0 0 0 0 0 0 0 0 0 0 0 0 0 0 0 0 0 0 0 0 0 0 0 0 0 0 0 0 0 0 0 0 0 0 0 0 0 0 0 0 0 0 0
0 0 0 0 0 0 0 0 0 0 0 0 0 0 0 0 0 0 0 0 0 0 0 0 0 0 0 0 0 0 0 0 0 0 0 0 0 0 0 0 0 0 0
0 0 0 0 0 0 0 0 0 0 0 0 0 0 0 0 0 0 0 0 0 0 0 0 0 0 0 0 0 0 0 0 0 0 0 0 0 0 0 0 0 0 0
0 0 0 0 0 0 0 0 0 0 0 0 0 0 0 0 0 0 0 0 0 0 0 0 0 0 0 0 0 0 0 0 0 0 0 0 0 0 0 0 0 0 0
0 0 0 0 0 0 0 0 0 0 0 0 0 0 0 0 0 0 0 0 0 0 0 0 0 0 0 0 0 0 0 0 0 0 0 0 0 0 0 0 0 0 0
0 0 0 0 0 0 0 0 0 0 0 0 0 0 0 0 0 0 0 0 0 0 0 0 0 0 0 0 0 0 0 0 0 0 0 0 0 0 0 0 0 0 0
0 0 0 0 0 0 0 0 0 0 0 0 0 0 0 0 0 0 0 0 0 0 0 0 0 0 0 0 0 0 0 0 0 0 0 0 0 0 0 0 0 0 0
0 0 0 0 0 0 0 0 0 0 0 0 0 0 0 0 0 0 0 0 0 0 0 0 0 0 0 0 0 0 0 0 0 0 0 0 0 0 0 0 0 0 0
0 0 0 0 0 0 0 0 0 0 0 0 0 0 0 0 0 0 0 0 0 0 0 0 0 0 0 0 0 0 0 0 0 0 0 0 0 0 0 0 0 0 0
0 0 0 0 0 0 0 0 0 0 0 0 0 0 0 0 0 0 0 0 0 0 0 0 0 0 0 0 0 0 0 0 0 0 0 0 0 0 0 0 0 0 0
0 0 0 0 0 0 0 0 0 0 0 0 0 0 0 0 0 0 0 0 0 0 0 0 0 0 0 0 0 0 0 0 0 0 0 0 0 0 0 0 0 0 0
Wind_Speed
1 1 1 3 7 8 9 9 10 10 11 11 11 12 12 12 12 12 12 11 11 11 12 12 12 12 13 12 12 12 12 11 11 11 11 11 11 11 11 11 9 6 11
2 1 2 3 7 9 9 9 10 10 10 11 11 11 11 11 11 11 11 11 11 11 11 11 11 11 11 11 11 11 11 11 10 10 10 9 9 10 11 10 9 7 10
3 2 2 5 8 9 9 9 9 9 10 10 10 10 10 11 11 11 10 10 10 11 11 11 11 11 11 10 10 10 11 11 11 10 9 5 5 9 10 10 10 9 9
4 3 2 6 8 8 9 9 9 9 9 9 10 10 10 10 10 10 10 10 10 10 11 11 11 11 10 10 10 10 11 11 11 10 5 4 4 7 9 10 10 9 9
4 2 3 7 8 8 8 8 8 8 8 9 9 10 10 10 10 10 10 10 11 10 10 10 10 10 10 10 10 11 10 10 10 8 5 4 3 7 8 9 9 9 9
4 3 3 7 8 8 8 8 8 9 9 9 9 9 9 9 10 10 10 10 10 10 10 10 10 10 10 10 10 11 11 11 8 5 5 4 3 6 7 8 9 9 9
4 3 3 6 7 8 8 7 8 8 8 8 8 8 8 9 9 9 9 9 9 10 10 10 10 10 9 10 10 10 10 10 6 5 4 4 4 7 7 8 8 8 8
5 4 3 5 6 7 7 8 7 7 8 8 8 8 8 8 8 8 8 8 9 9 9 10 9 9 9 9 10 10 10 9 6 5 4 3 5 7 7 7 7 7 7
4 4 3 2 4 5 6 7 7 8 8 8 8 8 8 8 8 8 8 8 8 8 9 9 9 9 9 9 10 10 10 10 6 4 5 3 6 7 7 7 6 6 6
4 3 3 2 3 3 3 6 7 8 8 8 8 8 8 7 7 7 7 7 7 8 8 8 9 9 9 9 9 9 9 8 5 4 3 4 7 7 7 6 6 6 6
3 2 2 2 2 2 3 5 5 6 7 7 6 7 6 3 3 4 5 7 7 7 7 8 8 9 9 8 9 9 7 4 4 4 3 5 6 6 6 6 6 5 5
2 2 2 2 2 2 2 2 2 3 3 3 3 3 3 2 2 3 5 6 6 7 7 7 8 8 6 4 6 7 3 5 4 3 4 7 6 6 6 5 5 5 5
2 2 2 2 2 2 1 1 1 1 1 2 2 2 2 2 2 2 2 2 3 4 3 4 4 3 3 3 3 3 3 3 3 3 4 7 7 7 6 5 5 5 5
3 2 2 2 2 2 2 1 1 1 1 1 1 2 2 2 2 2 1 1 2 1 2 2 2 3 3 3 3 3 3 2 2 3 4 8 7 7 7 6 5 5 5
3 3 3 2 2 2 2 1 1 1 1 1 1 1 2 1 1 1 1 1 1 1 1 1 2 2 3 2 2 3 3 3 3 3 3 8 8 7 7 7 7 6 6
4 4 3 3 3 2 2 2 1 1 1 1 1 1 1 1 1 1 1 1 1 1 1 1 1 2 1 2 2 2 2 2 2 3 3 5 8 8 7 7 8 8 7
4 4 3 3 3 3 2 2 1 1 2 1 1 1 1 1 1 1 1 1 1 0 1 1 1 1 2 2 2 2 2 2 2 2 2 2 3 7 8 8 9 9 9
5 4 3 3 3 3 2 2 1 1 1 1 1 1 1 1 2 1 1 0 1 0 1 1 1 1 1 2 2 2 1 2 2 2 1 2 2 3 6 8 9 10 10
5 5 4 3 3 3 2 1 1 1 0 1 1 1 1 1 2 2 1 0 0 1 0 1 1 0 1 2 2 2 1 1 1 1 1 2 2 2 2 6 8 10 10
3 4 4 3 3 2 2 1 1 1 0 0 0 1 1 1 2 2 1 0 0 0 1 0 0 1 0 1 2 2 2 2 1 1 1 1 1 2 2 3 4 6 9
3 3 3 3 3 2 2 2 1 1 1 0 0 1 0 0 1 2 1 1 1 1 0 1 1 0 0 1 1 2 2 2 2 1 1 1 1 1 2 2 2 3 4
3 4 4 4 3 3 2 2 2 1 1 1 0 1 1 0 0 1 2 1 1 1 0 0 1 1 0 0 0 1 2 2 2 2 1 1 1 1 2 3 3 3 3
3 4 4 3 3 2 2 1 1 1 0 0 1 1 1 0 0 0 1 1 1 2 2 1 1 1 1 1 0 1 1 3 3 2 2 2 1 1 2 2 3 3 3
4 3 3 3 2 2 2 3 3 3 2 2 1 1 1 1 1 0 0 0 1 1 2 2 1 1 2 2 1 1 1 1 1 3 2 2 2 2 3 3 3 3 3
3 3 2 2 2 2 2 3 3 2 2 1 1 0 1 1 1 0 0 0 0 1 1 1 2 2 2 2 2 1 2 2 2 3 5 4 3 3 3 3 3 3 3
1 2 2 3 3 3 3 3 4 4 3 2 2 1 1 1 1 1 0 0 1 1 1 1 1 2 2 2 2 2 2 2 2 3 5 5 5 4 3 3 3 3 3
Wind_Direction
247 285 32 65 87 86 86 85 84 82 80 78 76 75 76 75 74 73 71 70 70 70 68 67 64 62 59 57 57 55 52 48 49 51 52 55 59 61 59 58 56 48 57
162 166 79 83 94 90 85 83 85 83 82 80 78 76 76 76 74 74 71 68 68 68 67 65 65 65 60 55 53 52 48 46 47 47 45 45 51 59 58 57 57 54 56
126 132 120 90 94 90 88 85 85 86 85 84 81 76 74 74 72 73 70 68 68 68 67 65 64 63 58 51 48 49 49 48 47 44 41 31 36 55 57 56 54 53 53
123 122 120 91 95 92 90 89 87 86 87 85 82 79 76 74 72 71 68 67 67 67 66 65 63 59 54 51 49 51 50 47 45 39 34 23 22 50 57 58 56 52 50
106 98 106 93 98 97 93 93 91 88 87 87 85 82 78 74 72 71 68 66 64 63 62 62 60 57 53 51 50 50 50 46 41 34 24 20 18 46 54 58 55 51 50
95 85 93 89 95 99 99 96 94 89 86 85 85 84 81 77 73 71 68 67 64 61 59 59 57 54 53 51 50 49 47 45 37 27 19 16 20 46 53 58 54 52 51
100 83 95 88 89 89 89 92 94 91 86 83 82 82 80 77 73 71 68 65 63 61 59 58 55 52 51 52 51 49 45 42 39 27 19 13 26 45 51 57 57 55 52
108 92 92 83 83 85 87 85 85 88 86 83 80 79 78 75 72 69 67 64 62 60 57 55 52 49 48 49 49 48 41 35 33 26 15 7 27 41 47 51 52 51 48
104 99 86 85 83 79 79 79 77 75 77 77 77 72 68 68 65 60 60 62 61 59 56 53 50 46 46 48 47 46 40 33 25 16 12 7 27 36 43 44 43 43 41
93 94 87 71 74 80 83 77 74 71 70 68 67 64 61 60 59 56 55 58 59 56 53 51 48 47 47 45 45 42 36 29 19 11 3 12 30 34 41 41 40 39 36
91 85 89 77 71 86 94 84 79 74 70 68 63 62 59 47 49 52 51 57 57 54 51 48 47 49 44 40 38 35 29 20 11 5 358 15 25 27 33 33 35 30 27
138 127 111 102 87 85 96 95 87 82 78 71 64 56 50 45 42 55 52 56 53 47 44 44 45 43 37 26 28 30 23 12 13 0 0 14 18 18 20 21 24 23 19
169 153 140 131 122 105 95 107 84 79 81 73 67 63 56 51 43 42 48 45 42 42 35 32 30 26 27 25 27 26 20 16 6 352 354 8 9 9 10 11 11 11 7
162 169 155 134 128 123 116 117 118 106 97 87 78 79 80 61 48 37 47 43 41 39 35 28 26 21 30 31 32 28 18 10 359 349 355 5 1 360 359 2 358 358 357
176 179 170 159 154 149 140 138 131 143 134 126 102 82 89 91 69 49 25 44 47 43 42 32 30 29 30 25 26 28 14 4 1 357 351 4 2 357 353 355 358 0 355
192 187 180 168 166 154 153 155 152 154 143 132 113 99 106 106 95 86 36 14 41 52 37 39 37 32 21 15 15 10 1 355 358 353 348 355 1 2 3 0 357 351 348
193 184 179 175 161 157 161 158 150 163 145 144 144 140 129 119 121 113 97 13 350 51 66 62 57 47 35 20 6 353 350 346 340 342 352 360 353 358 360 360 356 350 344
187 181 188 180 161 160 165 162 158 172 161 164 162 160 148 130 126 121 106 10 355 6 117 103 73 40 23 6 346 332 331 329 330 340 1 1 357 353 350 355 354 350 343
191 182 187 183 176 172 168 156 155 137 190 198 179 178 178 152 137 139 138 192 33 24 105 114 63 46 11 353 328 315 309 293 297 325 340 350 350 349 346 349 353 352 346
192 184 184 181 173 161 147 128 108 77 337 294 254 224 201 180 160 145 136 150 141 66 17 105 111 26 281 314 316 314 296 274 270 276 297 331 340 339 346 340 341 342 343
196 185 179 178 181 162 160 161 169 207 230 289 289 297 233 190 178 159 156 169 169 173 261 206 155 114 341 17 4 324 309 272 246 254 276 305 305 318 341 332 333 335 332
202 195 184 187 195 194 193 178 169 166 191 205 289 328 356 35 104 183 174 191 200 190 213 264 169 180 243 70 66 324 310 304 283 261 249 253 279 330 329 322 318 321 323
225 214 202 202 203 198 175 145 123 97 29 344 324 308 330 330 356 116 189 200 206 200 212 248 208 183 214 244 198 184 239 269 308 281 253 256 287 301 300 305 310 319 323
232 222 203 194 190 195 178 170 174 186 208 226 221 245 308 314 313 299 270 209 227 229 223 241 234 211 200 227 244 242 240 233 262 298 294 280 281 279 283 296 298 304 309
223 207 205 191 192 197 190 186 183 200 213 206 188 212 269 300 308 330 335 284 261 252 244 247 261 227 211 222 229 240 251 264 240 250 282 295 297 277 275 278 278 284 289
221 194 200 199 209 202 196 194 190 197 201 195 209 209 232 257 282 312 281 262 270 260 253 253 248 238 228 230 238 237 235 238 240 245 267 286 291 290 284 274 268 269 272